[[{"header":{"parameterUnit":"m.s-1","parameterCategory":1,"la1":30.2991,"la2":30.254,"lo1":-89.0895,"lo2":-89.0444,"dy":0.0017,"dx":0.0017,"nx":28,"ny":28,"refTime":"2023-10-13T03:00:00:Z","depth":0,"parameterNumber":2,"parameterNumberName":"U-component_of_WINDS"},"data":[0,0,0,0,0,0,0,0,0,0,0,0,0,0,0,0,0,0,0,0,0,0,0,0,0,0,0,0,0,0,0,0,0,0,0,0,0,0,0,0,0,0,0,0,0,0,0,0,0,0,0,0,0,0,0,0,0,0,1.8803,1.8804,0,1.8869,1.887,1.8871,1.8784,1.8781,1.8777,1.8774,1.8842,1.8847,1.8852,0,0,0,0,0,0,0,0,0,0,0,0,0,1.8603,1.8607,1.8803,1.8804,1.8805,1.8869,1.887,1.8871,1.8784,1.878,1.8777,1.8773,1.8841,1.8846,1.8852,0,0,0,0,0,0,0,0,0,0,0,0,0,1.8682,1.8608,1.8803,1.8769,1.8767,1.8869,1.887,1.8871,1.8785,1.878,1.8776,1.8771,1.8839,1.8846,1.8853,1.8991,0,0,1.8875,1.8878,0,0,0,0,0,0,0,0,1.8677,1.8689,1.8773,1.8772,1.8769,1.8813,1.8824,1.8911,1.8786,1.8778,1.8774,1.8769,1.8837,1.8843,1.8866,1.8994,1.8997,1.8875,1.8879,1.8883,1.8885,0,0,0,0,0,0,0,1.8672,1.8686,1.8829,1.8775,1.8772,1.8751,1.8757,1.884,1.8833,1.8778,1.8772,1.8781,1.8834,1.886,1.8867,1.8998,1.8875,1.8881,1.8886,1.8888,1.9245,1.925,0,0,0,0,0,0,1.867,1.8682,1.8827,1.8831,1.8711,1.8759,1.8765,1.8804,1.8832,1.8831,1.8785,1.8777,1.885,1.8859,1.8869,1.9035,1.8882,1.8889,1.8893,1.924,1.9246,1.9252,0,0,0,0,0,0,1.8666,1.8684,1.8824,1.8755,1.8771,1.8767,1.8811,1.8808,1.8833,1.8837,1.8835,1.8812,1.8846,1.8859,1.8962,1.9036,1.8892,1.8899,1.9234,1.9242,1.9249,1.9366,0,0,0,0,0,0,1.8661,1.8683,1.8735,1.8757,1.8775,1.8916,1.8816,1.8812,1.8845,1.8835,1.8862,1.8862,1.8844,1.8952,1.8969,1.9043,1.8904,1.9227,1.9237,1.9246,1.9355,1.9377,1.9395,0,0,0,0,0,1.8654,1.8765,1.8738,1.8756,1.884,1.892,1.8931,1.8908,1.8851,1.8904,1.8907,1.8861,1.9025,1.8963,1.8982,1.9059,1.9222,1.9234,1.9246,1.9347,1.9373,1.9394,0,0,0,0,0,0,1.8752,1.8767,1.8738,1.8859,1.8889,1.8905,1.8971,1.8936,1.8982,1.8971,1.894,1.8947,1.9057,1.9068,1.8999,1.9195,1.9114,1.913,1.9185,1.9209,1.9229,1.9225,1.891,0,0,0,0,0,1.8788,1.8852,1.8861,1.8967,1.8984,1.8975,1.9009,1.8989,1.9019,1.9031,1.9041,1.9073,1.9131,1.917,1.9224,1.9356,1.9362,1.9418,1.9438,1.9454,1.9469,1.9542,1.9568,1.929,1.929,1.929,0,0,1.8863,1.8879,1.8921,1.8988,1.9008,1.9076,1.8987,1.9061,1.9111,1.9042,1.9141,1.915,1.9182,1.9301,1.9353,1.9313,1.9547,1.9469,1.9482,1.9488,1.9557,1.9583,1.9606,1.9298,1.9297,1.9295,0,0,1.9033,1.9051,1.9143,1.9166,1.9199,1.9193,1.9215,1.9237,1.924,1.9338,1.9289,1.9348,1.9449,1.9475,1.9501,1.9684,1.9644,1.9702,1.9806,1.9877,1.9899,1.9918,1.9985,2.001,1.9716,1.9716,1.9717,0,1.9122,1.9222,1.9194,1.9273,1.9305,1.9246,1.9339,1.9363,1.9412,1.9435,1.9389,1.9516,1.9534,1.9658,1.9703,1.9726,1.9751,1.9699,1.9898,1.9917,1.9935,1.9998,2.0024,1.9724,1.9723,1.9722,1.9721,0,1.933,1.94,1.947,1.952,1.9559,1.9644,1.9631,1.9674,1.965,1.9649,1.9751,1.977,1.9828,1.9855,1.9833,1.9978,1.9952,1.9903,1.9821,1.9969,2.0028,2.0052,1.9734,1.9731,1.9729,1.9727,0,0,1.9565,1.9599,1.9626,1.9649,1.9681,1.9735,1.9818,1.9875,1.9914,1.995,2.002,2.0107,2.0062,2.0092,2.0072,2.0134,2.0281,2.0077,2.0078,2.0116,2.0444,2.0483,2.0511,2.0253,2.0258,2.0261,2.0442,0,1.9738,1.9882,1.9861,2.0001,2.0066,2.0011,2.0084,2.0113,2.0114,2.017,2.0171,2.0235,2.0169,2.0187,2.0246,2.025,2.0346,2.0237,2.032,2.0323,2.0316,2.0542,2.0583,2.0752,2.0465,2.0469,2.0472,0,1.9959,2.0004,2.0151,2.0175,2.0201,2.0267,2.0319,2.0372,2.0404,2.04,2.0435,2.0404,2.0488,2.0404,2.0521,2.0447,2.048,2.0487,2.0493,2.0501,2.0408,2.0559,2.0805,2.0832,2.0508,2.0505,2.0502,0,2.0119,2.0216,2.0316,2.0337,2.0368,2.0416,2.043,2.0457,2.0493,2.0538,2.0562,2.0615,2.0646,2.0688,2.0673,2.0613,2.0794,2.0708,2.0795,2.0795,2.0836,2.0834,2.1094,2.0855,2.0854,2.0854,2.0853,0,2.0315,2.0407,2.0389,2.0451,2.0554,2.0528,2.063,2.0638,2.0663,2.0726,2.0682,2.0742,2.0717,2.0777,2.0765,2.0865,2.0878,2.0879,2.0875,2.0884,2.0884,2.0906,2.0895,2.086,2.0859,2.0858,2.0856,0,2.0511,2.0502,2.0609,2.0629,2.0637,2.0712,2.0729,2.0788,2.0786,2.0867,2.0884,2.0882,2.0949,2.0938,2.1012,2.1004,2.113,2.111,2.112,2.1116,2.1204,2.1197,2.1489,2.1526,2.1261,2.1263,2.1265,0,2.0638,2.0708,2.0736,2.0776,2.0795,2.0859,2.0896,2.0873,2.0913,2.0956,2.101,2.1074,2.1123,2.1234,2.1239,2.1296,2.1279,2.1377,2.1288,2.1295,2.1283,2.128,2.1288,2.1396,2.1399,2.1401,2.1403,0,2.0865,2.0858,2.0913,2.0968,2.1013,2.1055,2.1092,2.1127,2.1107,2.1155,2.1224,2.1263,2.134,2.1404,2.1458,2.1473,2.1437,2.1432,2.1455,2.1466,2.1469,2.1471,2.117,2.1425,2.1423,2.1421,2.142,2.1419,2.1032,2.1093,2.1123,2.1186,2.1212,2.1248,2.1305,2.131,2.1367,2.1429,2.1411,2.149,2.1521,2.159,2.1611,2.1673,2.1636,2.167,2.1679,2.1688,2.17,2.1458,2.1682,2.1681,2.1681,2.168,2.168,0,2.1259,2.1275,2.1334,2.1388,2.1438,2.1398,2.1438,2.1483,2.1553,2.1585,2.1635,2.1715,2.1778,2.1788,2.1847,2.1895,2.1879,2.1911,2.1909,2.1913,2.1728,2.1702,2.1923,2.1923,2.1923,2.1923,2.1923,2.1923,2.1383,2.1484,2.148,2.1594,2.1609,2.1687,2.1713,2.1747,2.1772,2.1864,2.1916,2.1922,2.1945,2.2007,2.2063,2.2064,2.2089,2.2128,2.2123,2.195,2.1926,2.1903,2.1879,2.2133,2.2133,2.2303,2.2305,2.2306]},{"header":{"parameterUnit":"m.s-1","parameterCategory":1,"la1":30.2991,"la2":30.254,"lo1":-89.0895,"lo2":-89.0444,"dy":0.0017,"dx":0.0017,"nx":28,"ny":28,"refTime":"2023-10-13T03:00:00:Z","depth":0,"parameterNumber":3,"parameterNumberName":"V-component_of_WINDS"},"data":[0,0,0,0,0,0,0,0,0,0,0,0,0,0,0,0,0,0,0,0,0,0,0,0,0,0,0,0,0,0,0,0,0,0,0,0,0,0,0,0,0,0,0,0,0,0,0,0,0,0,0,0,0,0,0,0,0,0,-0.1212,-0.1212,0,-0.1253,-0.1253,-0.1254,-0.1281,-0.1281,-0.1281,-0.1282,-0.1323,-0.1324,-0.1325,0,0,0,0,0,0,0,0,0,0,0,0,0,-0.1158,-0.1159,-0.1212,-0.1212,-0.1213,-0.1253,-0.1253,-0.1254,-0.1281,-0.1281,-0.1281,-0.1282,-0.1323,-0.1324,-0.1325,0,0,0,0,0,0,0,0,0,0,0,0,0,-0.1188,-0.1159,-0.1212,-0.1231,-0.1233,-0.1253,-0.1253,-0.1254,-0.1281,-0.1281,-0.1282,-0.1282,-0.1322,-0.1324,-0.1325,-0.1328,0,0,-0.1329,-0.133,0,0,0,0,0,0,0,0,-0.1187,-0.119,-0.1228,-0.123,-0.1232,-0.1262,-0.125,-0.1279,-0.1281,-0.1263,-0.1282,-0.1282,-0.1303,-0.1306,-0.1313,-0.133,-0.1332,-0.133,-0.133,-0.1331,-0.1331,0,0,0,0,0,0,0,-0.1184,-0.1189,-0.1228,-0.1228,-0.1231,-0.1238,-0.1243,-0.1255,-0.1281,-0.1265,-0.1267,-0.1271,-0.1304,-0.1311,-0.1314,-0.1332,-0.133,-0.1331,-0.1332,-0.1332,-0.1356,-0.1355,0,0,0,0,0,0,-0.1179,-0.1187,-0.1227,-0.1229,-0.121,-0.1239,-0.1244,-0.1252,-0.1281,-0.1285,-0.1271,-0.1272,-0.1309,-0.1312,-0.1315,-0.1321,-0.1331,-0.1332,-0.1333,-0.1356,-0.1356,-0.1355,0,0,0,0,0,0,-0.1178,-0.1183,-0.1225,-0.1209,-0.1215,-0.124,-0.1249,-0.1253,-0.126,-0.1285,-0.129,-0.1274,-0.1309,-0.1313,-0.1325,-0.1323,-0.1333,-0.1334,-0.1356,-0.1356,-0.1355,-0.1333,0,0,0,0,0,0,-0.1176,-0.1182,-0.1183,-0.1208,-0.1215,-0.1234,-0.1248,-0.1254,-0.1263,-0.1265,-0.1289,-0.1294,-0.131,-0.1323,-0.1326,-0.1325,-0.1335,-0.1356,-0.1356,-0.1356,-0.1334,-0.1332,-0.133,0,0,0,0,0,-0.1174,-0.1175,-0.1183,-0.1188,-0.1217,-0.1234,-0.1238,-0.1256,-0.1262,-0.1264,-0.128,-0.1293,-0.1323,-0.1324,-0.1328,-0.1327,-0.1357,-0.1356,-0.1356,-0.1335,-0.1332,-0.133,0,0,0,0,0,0,-0.1148,-0.1178,-0.1188,-0.1197,-0.1212,-0.1238,-0.1241,-0.1253,-0.1267,-0.1268,-0.1291,-0.1296,-0.1306,-0.1318,-0.1318,-0.1332,-0.1341,-0.1342,-0.1324,-0.1322,-0.132,-0.1317,-0.1337,0,0,0,0,0,-0.1143,-0.1154,-0.118,-0.1185,-0.1193,-0.1215,-0.1223,-0.1236,-0.1253,-0.126,-0.1277,-0.1293,-0.1307,-0.1315,-0.1328,-0.1336,-0.1342,-0.1338,-0.1336,-0.1334,-0.1334,-0.134,-0.1338,-0.1354,-0.1354,-0.1354,0,0,-0.1134,-0.1152,-0.1157,-0.118,-0.1194,-0.1205,-0.1221,-0.1231,-0.1239,-0.1262,-0.1274,-0.1287,-0.1307,-0.1316,-0.1322,-0.1327,-0.1331,-0.1333,-0.1332,-0.1333,-0.1339,-0.1337,-0.1336,-0.1353,-0.1353,-0.1353,0,0,-0.1121,-0.1136,-0.1142,-0.1156,-0.1177,-0.1192,-0.1193,-0.1218,-0.1228,-0.124,-0.1257,-0.1268,-0.129,-0.1304,-0.1313,-0.1308,-0.132,-0.1311,-0.1301,-0.1306,-0.1305,-0.1304,-0.1303,-0.1302,-0.1311,-0.1311,-0.1311,0,-0.1107,-0.1123,-0.1144,-0.1154,-0.1164,-0.1185,-0.1192,-0.1204,-0.1228,-0.1235,-0.124,-0.1269,-0.1284,-0.1298,-0.1296,-0.1303,-0.1306,-0.1308,-0.1304,-0.1303,-0.1302,-0.1301,-0.13,-0.131,-0.131,-0.131,-0.131,0,-0.1105,-0.1116,-0.1119,-0.1142,-0.1152,-0.116,-0.1182,-0.1191,-0.1203,-0.1218,-0.1231,-0.125,-0.1268,-0.1272,-0.1284,-0.1288,-0.129,-0.1299,-0.1309,-0.1299,-0.1299,-0.1298,-0.1308,-0.1309,-0.1309,-0.1309,0,0,-0.1076,-0.1111,-0.1112,-0.1123,-0.1148,-0.1158,-0.1167,-0.1185,-0.1192,-0.1208,-0.1217,-0.1236,-0.1245,-0.1256,-0.127,-0.1275,-0.127,-0.1284,-0.1284,-0.1281,-0.1276,-0.1268,-0.1268,-0.1278,-0.1278,-0.1278,-0.1274,0,-0.1068,-0.1086,-0.1105,-0.1117,-0.1128,-0.1149,-0.1157,-0.1174,-0.1188,-0.12,-0.1216,-0.1229,-0.124,-0.1247,-0.1252,-0.1269,-0.1269,-0.127,-0.1287,-0.1287,-0.1281,-0.1267,-0.1259,-0.1255,-0.1274,-0.1274,-0.1274,0,-0.106,-0.1076,-0.1089,-0.1114,-0.1119,-0.1126,-0.1145,-0.1156,-0.1175,-0.1186,-0.1199,-0.1214,-0.1225,-0.1234,-0.1251,-0.1251,-0.1259,-0.1268,-0.1269,-0.1271,-0.128,-0.1269,-0.1253,-0.1253,-0.1273,-0.1273,-0.1273,0,-0.1039,-0.1063,-0.1074,-0.1083,-0.1112,-0.1117,-0.1129,-0.1149,-0.1159,-0.1176,-0.1182,-0.12,-0.1209,-0.1222,-0.1242,-0.1246,-0.1257,-0.1267,-0.1266,-0.1266,-0.1267,-0.1267,-0.1253,-0.1272,-0.1272,-0.1272,-0.1272,0,-0.1027,-0.1034,-0.1065,-0.1072,-0.108,-0.1103,-0.1111,-0.1125,-0.1143,-0.1153,-0.1172,-0.1181,-0.1207,-0.1219,-0.1235,-0.1247,-0.1251,-0.126,-0.1264,-0.1258,-0.1257,-0.1264,-0.1264,-0.1272,-0.1272,-0.1272,-0.1272,0,-0.1005,-0.1025,-0.1039,-0.1066,-0.1073,-0.1078,-0.1101,-0.1109,-0.1125,-0.1137,-0.1142,-0.1167,-0.1182,-0.1203,-0.1226,-0.1236,-0.1246,-0.1252,-0.1239,-0.1242,-0.124,-0.124,-0.123,-0.123,-0.1249,-0.1249,-0.1249,0,-0.0996,-0.1002,-0.103,-0.1038,-0.105,-0.1063,-0.1074,-0.1096,-0.1106,-0.113,-0.1135,-0.1152,-0.1167,-0.1191,-0.1211,-0.1229,-0.1236,-0.1231,-0.1238,-0.1233,-0.1236,-0.1235,-0.1237,-0.1229,-0.1229,-0.1228,-0.1228,0,-0.0979,-0.0989,-0.1003,-0.1021,-0.1033,-0.1048,-0.1065,-0.107,-0.1097,-0.1107,-0.1124,-0.1135,-0.1158,-0.1176,-0.1196,-0.1209,-0.1223,-0.1226,-0.1227,-0.1221,-0.1213,-0.1218,-0.1235,-0.1226,-0.1226,-0.1226,-0.1226,-0.1226,-0.0963,-0.097,-0.099,-0.1006,-0.1021,-0.1036,-0.1044,-0.1062,-0.1076,-0.1096,-0.1109,-0.1125,-0.1146,-0.1174,-0.1187,-0.1201,-0.1206,-0.1207,-0.1207,-0.1207,-0.1206,-0.1211,-0.1204,-0.1204,-0.1204,-0.1205,-0.1205,0,-0.0947,-0.0962,-0.0976,-0.0998,-0.101,-0.1023,-0.1042,-0.1052,-0.1065,-0.1083,-0.1098,-0.1118,-0.1135,-0.1157,-0.1175,-0.1182,-0.1189,-0.1186,-0.1186,-0.1189,-0.1199,-0.1197,-0.118,-0.118,-0.118,-0.118,-0.118,-0.118,-0.094,-0.0952,-0.0965,-0.0985,-0.1,-0.1016,-0.1026,-0.104,-0.1054,-0.1075,-0.109,-0.1104,-0.1124,-0.1144,-0.1161,-0.1167,-0.1173,-0.1168,-0.1176,-0.1186,-0.1188,-0.119,-0.1188,-0.1169,-0.1169,-0.1165,-0.1165,-0.1165]}]]